Location: Newark
(34.6283°N, 36.0776°E)
Time: 09:13:37
(UTC+00:00)

Courier 1B Rocket - Pass Details

Date: 23 September 2019
Orbit: 920 x 1202 km, 28.2° (Epoch: 18 October)

Event Time Altitude Azimuth Distance (km) Brightness Sun altitude
Rises 17:31:46 0° 264° (W) 3,816 9.1 -25.1°
Reaches altitude 10° 17:35:42 10° 244° (WSW) 2,798 7.9 -25.9°
Maximum altitude 17:39:36 16° 209° (SSW) 2,325 7.0 -26.6°
Enters shadow 17:41:43 14° 187° (S) 2,433 6.9 -27.0°
